Terminal Aerodrome Forecast
Issued by NWS Burlington, VT

Home | Current Version | Previous Version | Text Only | Print | Product List | Glossary On
Versions: 1 2 3 4 5 6 7 8 9 10 11 12 13 14 15 16 17 18 19 20
204
FTUS41 KBTV 100537
TAFBTV
TAF
KBTV 100537Z 1006/1106 19004KT P6SM VCSH BKN025 OVC035
     FM101500 18006KT P6SM VCSH OVC025
     FM102100 29006KT 2SM -SN BR OVC020
     FM110300 30005KT 3SM -SN BR OVC020=

USA.gov is the U.S. government's official web portal to all federal, state and local government web resources and services.